Temp
17 19 21 22 22 23 23 23 23 23 23 23 24 24 25 25 25 24 31 32 30 29 28 29 29 30 31 32 32 32 36 36 36 36 36 36 36 35 35 34 33 33 33 32 27
20 21 22 22 23 23 23 23 23 23 23 23 24 24 25 25 22 30 30 30 30 29 30 31 32 32 32 33 34 35 37 36 36 37 37 36 36 35 35 34 33 31 31 28 27
21 22 22 23 23 24 24 24 24 24 24 24 24 25 25 24 29 34 31 30 30 29 31 31 31 33 34 35 35 36 37 37 37 37 37 37 36 36 36 34 35 32 30 29 29
20 21 22 23 23 24 24 24 24 24 25 24 25 25 25 22 33 30 30 29 29 29 31 32 32 34 36 35 36 36 37 37 37 37 37 37 37 36 36 36 36 34 32 31 30
19 21 22 22 23 23 24 24 24 24 25 24 25 25 24 31 33 31 29 29 28 29 33 33 35 35 35 36 36 36 37 38 37 37 37 37 37 37 36 36 36 34 32 32 32
19 21 22 22 23 23 24 24 25 25 25 25 26 25 27 35 30 29 29 28 30 31 33 34 35 35 35 36 36 36 37 38 38 37 37 37 37 36 37 35 34 33 32 33 33
19 20 22 22 23 23 24 25 25 25 25 26 26 25 31 34 30 29 30 31 31 33 34 33 34 34 36 36 37 37 38 39 38 38 38 37 36 36 37 35 34 33 33 33 33
19 20 21 22 22 23 24 25 25 25 26 25 25 24 35 30 30 30 31 31 31 32 33 33 33 35 35 36 38 38 39 38 38 38 37 37 37 38 37 36 34 34 33 33 33
19 21 21 22 23 24 25 25 25 25 25 25 25 29 36 30 32 32 32 34 33 33 32 32 34 36 37 38 38 39 37 38 38 38 37 37 37 37 38 37 36 35 34 33 33
19 20 21 22 23 25 25 25 24 24 24 22 25 31 34 35 33 32 32 33 34 35 34 34 36 37 38 39 37 37 38 38 37 39 38 37 38 38 37 37 37 36 34 34 34
19 20 21 22 23 25 25 22 28 30 28 35 35 34 35 33 32 33 32 33 35 35 36 36 37 38 37 37 37 37 37 37 38 38 37 38 38 39 39 37 37 37 35 35 34
19 20 21 22 22 23 24 31 28 27 33 34 33 33 33 33 35 35 33 35 35 36 36 36 37 38 37 37 37 38 38 38 38 37 36 38 38 40 40 38 37 37 37 36 35
19 21 22 22 23 22 24 28 24 26 32 34 33 34 35 34 36 36 35 36 36 36 36 36 38 36 36 37 37 39 38 38 38 39 37 37 39 39 40 39 39 38 38 37 36
19 20 22 23 22 22 28 24 24 25 33 34 33 34 34 35 35 37 36 37 36 36 37 37 38 37 37 37 38 38 38 38 38 38 38 37 37 39 40 40 40 38 38 37 37
19 20 21 21 18 27 24 23 24 27 33 33 33 32 34 35 37 36 36 37 36 36 36 37 36 36 37 37 38 38 38 37 38 38 38 39 38 40 40 39 41 41 40 39 38
19 20 21 17 17 22 22 23 26 32 33 34 34 34 34 34 36 35 35 36 37 37 37 37 37 37 37 38 37 38 37 38 38 39 37 39 38 39 40 40 40 40 39 39 39
20 20 17 15 26 20 22 28 32 33 34 34 35 35 35 35 35 36 35 35 35 34 35 37 37 38 37 37 38 37 38 36 37 37 38 38 37 39 40 41 41 40 38 37 37
20 20 19 17 18 19 25 32 31 34 34 34 35 35 35 36 35 36 36 36 37 37 37 36 36 38 38 37 37 38 38 37 35 37 38 37 37 39 41 41 40 38 36 35 36
19 17 18 19 18 19 30 31 34 33 33 33 35 35 35 35 35 35 36 37 37 37 35 36 36 38 37 38 37 37 36 39 38 38 37 38 39 40 41 41 39 37 36 35 34
17 23 24 18 18 24 31 30 33 32 33 34 34 34 35 35 35 36 36 37 37 38 38 37 35 38 38 38 38 37 39 37 37 35 35 38 38 38 39 40 37 37 37 34 34
19 28 21 18 21 29 31 32 32 32 32 33 33 33 34 34 35 36 37 38 38 38 38 38 37 37 38 37 37 36 36 37 38 38 37 36 38 40 39 39 37 37 35 34 34
24 29 21 20 29 31 32 31 26 32 32 32 32 33 33 34 34 35 35 37 38 38 36 37 37 36 37 39 39 39 38 39 37 36 38 37 37 41 39 38 36 35 32 32 33
27 27 23 23 30 30 30 30 31 32 32 32 32 32 33 33 32 34 35 37 37 36 37 36 36 36 37 38 37 37 38 38 39 39 37 37 38 40 38 36 34 33 32 31 30
25 28 27 28 28 30 30 30 30 31 31 32 32 33 32 32 34 33 35 36 35 36 28 34 37 36 37 37 37 37 38 39 39 38 37 38 38 39 40 36 34 30 30 29 29
24 26 24 28 29 29 29 30 30 30 30 31 31 31 32 32 33 33 34 35 36 29 33 36 35 36 37 37 37 36 37 38 37 38 38 39 39 39 38 35 35 31 29 28 27
23 23 25 26 26 27 23 29 29 30 30 30 30 30 31 30 32 32 33 33 34 35 35 36 34 35 35 37 36 36 37 37 37 37 38 38 38 39 34 34 33 31 29 29 27
18 19 22 20 27 28 30 29 29 28 30 30 30 29 31 31 31 31 32 33 33 32 34 34 34 34 34 36 35 34 36 37 37 37 37 36 38 36 34 33 32 31 30 29 28
Height
808 806 804 802 801 799 798 796 795 794 792 791 789 788 786 785 783 782 779 778 778 780 782 784 784 782 780 777 777 774 777 783 780 780 779 768 774 772 774 781 781 784 783 787 802
807 806 804 802 801 799 797 796 794 793 792 790 789 787 785 783 782 779 778 777 777 779 782 781 779 779 778 776 773 772 773 778 769 767 770 768 769 775 777 782 787 789 791 797 804
807 805 803 801 800 798 797 795 794 792 790 789 788 786 784 782 781 773 776 777 779 781 782 781 780 776 775 770 770 768 774 768 765 763 761 766 770 768 774 785 778 788 793 798 802
807 805 803 801 799 798 796 795 793 791 789 788 787 786 784 782 789 778 778 780 781 783 782 781 779 777 773 776 767 772 764 764 761 763 765 769 762 772 770 772 770 777 789 795 799
808 805 803 801 799 797 795 793 792 790 789 787 787 786 785 778 778 777 779 781 783 784 780 778 774 774 779 772 769 770 764 760 759 762 762 762 768 769 772 768 771 779 787 793 796
808 805 803 801 798 795 793 792 791 789 788 787 786 786 785 781 778 777 781 783 784 783 779 777 774 773 772 771 772 765 762 760 757 761 762 768 765 768 764 768 774 780 786 789 792
807 805 802 799 797 794 792 790 789 788 787 786 785 784 782 778 778 778 781 783 784 782 779 777 776 775 768 768 761 761 765 758 760 760 763 760 774 774 760 767 775 779 782 786 789
807 805 802 799 795 793 790 788 787 787 786 785 785 785 774 777 778 779 780 782 782 782 781 779 777 773 770 762 760 766 759 775 761 761 763 766 776 757 758 765 773 776 779 783 787
806 802 800 797 794 792 788 787 786 785 785 785 785 784 771 775 777 777 778 777 780 781 781 780 776 770 763 769 774 765 786 780 772 757 763 771 774 759 754 760 766 771 776 780 784
806 802 798 794 792 789 787 785 785 785 785 786 786 785 773 769 773 776 778 778 777 777 779 777 772 770 765 768 796 791 782 776 779 763 763 768 766 753 756 756 761 764 771 774 778
805 801 797 794 790 786 786 787 786 783 781 766 767 769 766 771 773 774 777 777 773 774 781 774 781 780 774 773 776 777 778 782 771 763 768 764 761 752 744 754 755 757 763 767 770
803 799 796 793 789 786 785 780 783 786 776 766 768 770 770 770 770 770 774 776 777 782 773 782 785 765 768 770 775 775 777 778 768 767 770 762 763 744 740 744 749 750 754 759 763
799 795 792 790 787 787 787 785 785 785 777 765 765 764 765 769 766 764 767 766 773 778 776 782 767 768 774 775 778 767 776 779 779 762 761 766 760 750 736 736 736 740 741 748 753
797 793 790 787 788 787 784 786 786 787 780 771 767 762 764 761 768 756 760 763 769 777 770 773 758 771 775 778 772 781 767 770 770 772 780 762 792 753 741 740 733 736 737 740 745
796 793 790 788 788 785 787 785 784 785 800 767 765 761 758 763 753 759 756 760 773 771 774 773 772 776 779 772 768 775 765 771 771 770 769 761 777 751 737 748 731 722 724 728 735
794 791 788 788 788 787 785 785 785 789 799 769 758 763 767 762 758 759 761 759 755 767 764 766 757 765 767 761 764 760 768 766 765 766 790 763 774 762 748 740 730 723 725 724 725
790 787 786 787 784 785 785 783 787 791 763 769 763 757 758 762 762 759 766 773 777 792 787 768 766 755 756 771 756 765 774 795 795 787 786 759 775 757 733 722 720 723 728 728 725
786 783 782 783 784 784 785 781 800 771 768 756 758 757 765 756 760 759 761 768 757 760 770 776 785 756 749 762 767 760 765 785 810 797 777 764 781 750 719 712 716 722 727 729 727
783 784 784 784 783 784 779 788 772 768 764 765 757 763 764 759 759 759 761 758 749 754 778 775 778 744 749 747 753 760 776 750 769 760 782 762 746 728 713 714 719 723 726 728 728
785 783 782 782 782 784 779 782 768 764 762 760 769 762 766 762 762 758 757 742 748 742 742 756 780 749 744 742 746 756 742 774 768 801 800 767 760 756 735 723 726 724 724 728 728
784 773 783 781 784 777 779 768 764 760 763 767 768 768 765 767 756 754 749 738 734 737 735 745 759 760 742 758 757 760 766 758 748 755 778 782 759 720 727 722 727 722 723 727 726
780 770 783 783 778 767 769 767 773 761 760 763 764 765 767 762 762 758 755 743 727 729 751 740 747 765 753 729 725 733 741 740 765 773 756 761 758 704 714 718 722 724 732 730 727
774 773 782 782 772 771 766 768 765 764 762 762 765 762 760 764 773 754 747 732 732 738 741 740 752 765 755 736 734 744 737 735 733 733 755 767 751 706 712 720 724 728 731 734 734
779 773 774 773 769 763 767 767 768 760 761 758 761 757 762 765 756 763 752 737 736 737 747 740 737 749 755 740 736 745 733 724 731 748 746 740 737 716 709 721 724 734 735 737 738
780 775 779 771 768 764 764 763 766 769 762 760 762 762 760 767 759 757 749 742 733 744 742 737 752 739 734 730 734 738 736 727 737 729 738 723 722 712 711 720 717 727 735 737 740
786 785 778 773 774 771 777 767 767 763 766 764 768 761 761 767 759 758 749 752 748 734 739 730 753 742 746 727 733 740 729 728 724 725 720 722 724 698 713 713 718 725 731 735 738
798 796 790 784 768 769 760 762 764 768 759 758 762 765 758 753 751 749 745 743 743 749 744 741 743 750 757 729 738 753 730 724 720 716 720 733 713 706 718 720 719 722 725 731 737
Wind_Speed
11 10 8 8 7 7 6 7 7 7 8 9 9 10 10 11 13 6 7 1 6 13 11 8 4 3 4 1 2 2 5 5 7 2 7 8 5 4 2 11 2 2 2 16 23
12 10 10 9 8 8 7 7 7 8 8 9 10 11 13 16 6 7 4 6 9 15 10 7 3 3 2 2 2 4 2 5 2 3 3 6 5 8 6 9 5 6 12 22 24
12 11 10 10 9 9 8 7 7 7 8 9 9 11 15 9 5 5 7 10 13 12 6 4 4 5 4 3 2 2 4 2 4 1 2 6 5 6 2 5 4 8 16 21 23
14 12 11 11 10 10 9 9 8 7 8 8 9 11 11 3 2 2 9 13 13 5 6 3 2 3 1 3 3 3 3 1 4 4 2 5 6 5 5 6 2 12 17 20 19
15 13 12 11 10 10 9 9 8 8 7 8 8 10 2 5 3 3 10 15 12 4 4 2 3 5 4 5 1 3 5 1 5 5 4 3 6 2 6 3 7 15 18 18 17
16 14 13 12 11 10 10 8 7 8 7 7 7 7 4 7 2 6 12 16 9 7 2 4 5 8 6 5 5 8 7 3 6 9 6 8 4 5 5 8 12 16 17 17 17
16 15 14 13 11 11 10 9 7 6 6 6 5 5 5 4 1 8 15 13 10 7 3 5 8 8 10 4 7 5 3 7 3 3 3 8 8 8 7 12 14 17 16 16 16
17 15 15 14 14 12 10 9 7 5 4 4 5 3 3 2 3 12 12 8 7 6 4 5 7 9 5 7 3 2 2 1 6 5 3 7 3 6 11 14 14 16 16 16 18
17 17 16 17 15 13 11 7 4 2 2 2 2 5 3 4 6 11 12 6 9 7 6 7 8 5 5 4 7 3 3 5 1 4 3 9 8 6 9 13 14 15 15 15 16
19 18 18 17 16 15 7 3 3 2 2 3 5 5 7 3 7 10 10 7 5 8 7 6 5 6 4 5 6 8 6 4 6 4 7 10 11 7 8 13 14 14 16 17 17
19 19 18 17 19 10 1 2 5 5 7 6 3 3 5 6 10 9 14 10 8 8 11 6 9 7 5 4 7 8 5 4 6 6 6 7 10 9 8 13 14 14 17 18 18
20 19 18 16 16 2 1 4 4 5 5 8 10 7 5 1 5 9 14 11 9 12 6 7 11 2 3 6 7 7 9 5 3 3 5 7 11 9 8 13 14 14 16 19 19
22 21 19 17 7 3 2 4 3 6 6 5 5 7 8 10 6 12 16 11 10 12 11 12 2 1 5 8 9 8 8 7 9 5 7 8 13 3 5 9 12 14 15 19 20
22 21 19 17 2 5 2 4 7 5 5 9 6 5 7 8 9 12 15 9 8 12 11 10 9 10 10 9 8 14 5 10 11 8 8 3 11 10 3 11 9 13 16 18 21
22 20 17 11 7 3 1 7 3 5 4 4 7 4 3 13 5 13 16 11 15 11 7 10 6 8 10 8 5 10 6 10 10 12 9 12 8 8 3 8 8 3 11 16 18
23 19 16 6 4 5 4 5 4 6 4 5 5 8 9 14 12 7 11 9 7 16 14 17 1 6 11 5 9 11 11 10 10 9 11 3 8 11 5 7 9 3 3 4 12
22 17 11 4 1 3 4 5 6 5 3 6 4 6 8 9 16 14 13 17 14 12 16 18 20 18 12 17 17 11 14 11 12 8 9 7 7 9 12 10 10 10 5 2 5
20 9 6 6 4 3 5 6 7 2 3 2 2 4 7 7 10 19 14 14 20 19 13 12 13 19 15 16 18 18 17 15 16 11 11 6 6 5 8 9 5 4 2 2 2
8 1 2 2 7 3 6 9 2 1 1 2 5 6 7 7 5 12 20 18 12 13 18 12 15 13 9 10 7 15 13 18 17 14 11 15 4 13 6 3 2 2 2 2 1
2 3 3 3 6 7 8 13 2 2 3 3 4 3 5 2 8 9 12 13 23 14 15 16 16 16 12 12 14 13 6 9 12 17 17 12 4 8 8 11 3 2 4 3 2
3 4 6 6 8 6 11 13 7 4 4 4 1 2 1 3 5 6 5 7 10 9 18 18 14 15 14 12 15 9 13 12 12 8 11 11 7 5 10 9 7 5 2 2 2
4 4 6 1 7 5 12 9 1 5 5 5 6 8 10 9 9 7 9 11 6 11 13 15 9 13 17 18 14 13 12 14 11 16 11 11 13 9 0 6 5 2 2 1 1
2 2 5 4 6 9 4 9 8 8 10 5 6 5 3 6 5 6 9 3 7 8 6 8 10 12 15 13 10 14 20 18 17 16 16 14 13 7 4 3 0 2 2 1 0
3 4 4 5 3 7 9 10 10 6 9 8 9 8 12 13 12 9 8 2 3 10 6 4 14 11 12 8 8 11 16 20 19 14 16 19 15 16 9 2 5 4 3 2 2
2 2 4 5 7 5 5 3 9 7 7 5 6 12 13 13 14 17 15 13 13 8 5 8 14 14 15 14 10 11 15 14 17 20 21 15 16 7 4 4 6 8 6 5 4
4 4 1 2 3 7 6 8 8 5 4 5 7 5 9 12 13 11 8 11 11 2 10 11 15 12 16 12 9 10 8 12 15 17 16 15 18 10 3 3 9 11 10 8 7
5 2 4 3 4 7 6 6 6 1 4 4 4 9 7 3 6 12 14 14 13 11 11 10 10 10 17 17 16 14 18 20 16 14 13 15 13 6 4 6 10 12 12 10 9
Wind_Direction
10 3 354 350 343 337 334 333 332 332 331 334 328 324 322 318 311 285 253 269 179 165 146 154 179 206 229 255 288 261 219 123 101 95 96 149 159 136 103 139 166 96 322 124 155
8 0 356 352 347 338 327 327 327 327 328 330 328 327 326 323 296 242 254 161 165 167 172 184 184 207 252 249 215 267 289 52 47 55 66 155 183 158 169 156 131 113 109 137 154
6 2 357 353 346 337 331 324 324 322 326 329 331 331 331 333 249 65 147 147 148 160 199 210 241 280 263 226 130 79 27 102 133 139 340 139 180 174 169 187 146 155 148 154 162
12 6 2 354 348 341 333 326 319 319 323 329 330 337 343 298 43 67 135 149 138 152 167 179 255 257 1 59 51 242 107 126 103 153 147 154 140 193 209 77 40 146 160 162 172
15 9 3 355 349 341 333 326 320 316 321 325 331 343 31 231 89 217 166 165 161 183 186 156 337 327 36 353 284 304 18 236 187 179 226 174 196 207 211 121 141 147 162 172 178
10 6 358 354 346 338 327 318 312 308 312 318 330 341 271 190 68 177 167 166 188 206 205 266 355 346 291 324 330 332 317 279 214 198 220 233 180 204 172 153 149 161 173 179 181
2 359 353 348 340 332 323 312 306 298 301 309 319 339 255 52 111 172 173 183 195 214 251 289 309 312 331 300 342 304 266 162 118 190 204 243 220 222 152 169 167 176 180 184 187
356 352 348 342 335 329 317 305 297 289 289 301 316 299 326 113 153 164 175 178 199 213 259 302 296 285 270 313 222 258 239 3 114 182 138 225 9 147 164 184 184 189 186 189 193
352 348 343 338 338 329 314 295 270 251 253 295 306 281 139 140 182 182 185 196 189 206 230 264 280 288 246 268 191 227 33 11 35 200 162 231 312 74 179 203 200 196 194 194 198
349 346 342 340 339 329 313 283 240 262 263 252 261 250 182 132 147 169 183 176 188 185 207 228 240 264 211 290 40 346 349 27 8 41 224 256 266 269 208 217 219 200 200 199 200
346 345 345 343 338 334 330 221 217 193 217 282 66 325 127 110 147 183 180 191 181 217 230 204 260 219 8 354 333 325 320 342 57 18 302 292 307 293 214 226 225 209 203 204 205
344 343 342 340 336 28 81 267 41 356 281 224 252 266 216 194 178 159 173 200 205 227 203 219 241 185 290 291 302 297 277 77 182 345 282 308 304 290 252 234 232 222 209 210 203
339 339 340 342 341 30 278 135 79 353 256 170 216 251 218 208 225 175 192 209 221 228 226 260 79 141 276 282 278 255 309 346 335 300 236 282 269 202 265 258 242 228 223 209 208
338 337 337 346 79 334 163 175 290 283 260 145 189 185 196 228 237 211 206 211 216 242 235 261 265 255 254 255 270 283 26 326 321 310 313 263 302 286 310 303 236 230 222 219 209
335 332 330 335 303 255 44 318 300 208 257 125 142 113 183 203 116 191 208 213 245 216 239 243 195 208 214 260 280 288 322 322 309 295 298 247 270 306 170 292 302 239 220 219 214
330 325 324 353 261 263 299 309 241 229 216 144 140 177 176 204 214 136 186 223 256 249 231 264 76 259 265 266 254 295 284 263 259 279 271 8 315 298 341 303 311 286 332 282 224
327 315 294 239 22 294 311 212 226 250 131 145 150 189 214 184 212 202 187 200 215 216 233 235 237 237 233 263 252 244 261 263 248 228 260 63 300 295 305 308 322 334 338 335 273
328 312 286 210 251 283 225 221 247 47 232 116 241 230 221 172 214 206 208 211 219 249 265 256 243 227 228 240 266 253 244 255 262 265 292 143 280 297 336 307 296 310 307 293 289
341 338 224 248 224 220 224 218 267 242 357 295 218 223 170 174 258 207 220 226 220 213 239 251 247 260 255 243 248 241 234 253 279 267 264 269 235 254 274 304 38 291 221 221 168
328 217 116 264 190 208 222 240 218 296 312 260 269 288 192 166 216 204 188 221 237 220 235 248 265 264 251 213 247 253 322 217 229 260 268 264 261 270 331 336 22 233 204 162 214
237 217 20 125 154 210 224 225 240 204 288 306 253 277 262 320 285 224 218 208 208 221 221 237 236 265 217 219 245 184 230 235 287 283 275 267 265 83 305 326 314 298 136 168 159
287 209 161 176 197 210 229 212 345 226 211 273 289 282 279 293 281 257 247 248 217 222 213 221 244 246 256 230 232 279 251 229 232 229 241 284 285 306 347 312 318 360 134 128 123
314 91 193 251 215 210 181 220 243 230 240 244 258 242 322 277 275 258 280 300 229 219 218 187 227 251 239 203 211 227 235 241 253 249 263 272 270 135 156 264 155 154 179 197 238
271 189 156 218 293 271 205 221 216 211 251 257 262 267 262 256 245 266 273 330 314 260 38 235 261 250 279 325 345 216 232 230 243 241 245 247 256 276 310 267 175 167 152 140 177
326 66 357 186 200 221 218 184 213 209 223 221 235 245 258 255 251 247 253 267 272 193 238 255 258 265 267 285 288 270 283 256 237 240 251 262 258 270 328 273 205 170 161 163 156
336 327 264 274 227 225 173 207 240 194 234 180 241 321 279 252 258 299 328 285 264 251 252 243 261 271 260 246 256 280 273 272 255 250 267 286 287 309 104 191 160 164 172 168 155
11 301 287 138 213 224 214 232 229 242 205 261 326 310 286 332 310 292 280 274 272 284 286 270 258 234 260 270 289 289 273 277 245 242 253 260 305 124 175 205 179 169 170 158 141